Regional Weather Roundup
Issued by NWS

Home | Current Version | Previous Version | Graphics & Text | Print | Product List | Glossary On
Versions: 1 2 3 4 5 6 7 8 9 10 11 12 13 14 15 16 17 18 19 20 21 22 23 24 25 26 27 28 29 30 31 32 33 34 35 36 37 38 39 40 41 42 43 44 45 46 47 48 49 50
304
ASUS43 KFSD 180302
RWRSD

WEATHER ROUNDUP FOR SOUTH DAKOTA
NATIONAL WEATHER SERVICE SIOUX FALLS SD
1000 PM CDT THU AUG 17 2017

NOTE: "FAIR" INDICATES FEW OR NO CLOUDS BELOW 12,000 FEET WITH NO
SIGNIFICANT WEATHER AND/OR OBSTRUCTIONS TO VISIBILITY.


SDZ001>005-009-010-012>017-180400-
NORTHWEST AND NORTH CENTRAL SOUTH DAKOTA

CITY           SKY/WX    TMP DP  RH WIND       PRES   REMARKS
BUFFALO          N/A     71  43  36 N12       29.89R
FAITH            N/A     70  47  43 W9        29.91R
MOBRIDGE       CLOUDY    70  60  70 SE9       29.85R
$$

SDZ012>016-024>037-041>051-057-063-072>074-180400-
SOUTHWEST AND SOUTH CENTRAL SOUTH DAKOTA

CITY           SKY/WX    TMP DP  RH WIND       PRES   REMARKS
RAPID CTY ARPT PTCLDY    61  53  75 W7        29.97R
PIERRE         CLOUDY    70  58  65 E18       29.84F
CUSTER         CLEAR     56  46  69 NW5       30.12R
ELLSWORTH AFB  CLOUDY    61  55  81 W8        29.97R
PHILIP         CLOUDY    74  49  41 N9        29.89F
PINE RIDGE     PTCLDY    67  52  58 E3        30.00R
SPEARFISH      FAIR      61  46  59 W6        30.03R
WINNER         MOCLDY    66  58  75 S12       29.89S
$$

SDZ004>011-016>023-039-040-180400-
NORTHEAST SOUTH DAKOTA

CITY           SKY/WX    TMP DP  RH WIND       PRES   REMARKS
ABERDEEN       CLOUDY    66  62  87 S6        29.88R
WATERTOWN      CLEAR     65  58  78 CALM      29.90R
BROOKINGS      CLOUDY    66  59  78 SE3       29.91R
SISSETON         N/A     63  61  93 CALM      29.87R
$$

SDZ017-020-022-023-036>040-048>070-180400-
SOUTHEAST SOUTH DAKOTA

CITY           SKY/WX    TMP DP  RH WIND       PRES   REMARKS
SIOUX FALLS    CLOUDY    65  62  90 CALM      29.90R
HURON          LGT RAIN  72  59  63 NW28G43   29.94R
CHAMBERLAIN    CLOUDY    72  65  78 NE8       29.86F
MITCHELL       CLOUDY    70  61  73 SE9       29.86R
YANKTON        CLEAR     70  62  76 SE3       29.89R
$$

ABBREVIATIONS USED IN REMARKS
   TC - TEMPERATURE IN CELSIUS
  WCI - WIND CHILL INDEX
   HX - HEAT INDEX
  VSB - VISIBILITY





USA.gov is the U.S. government's official web portal to all federal, state and local government web resources and services.